TimePDT,TemperatureF,Dew PointF,Humidity,Sea Level PressureIn,VisibilityMPH,Wind Direction,Wind SpeedMPH,Gust SpeedMPH,PrecipitationIn,Events,Conditions,WindDirDegrees,DateUTC
12:52 AM,52.0,46.9,83,30.01,-9999.0,Calm,Calm,-,N/A,,Unknown,0,2013-03-30 07:52:00
1:52 AM,53.1,46.9,80,30.01,-9999.0,ENE,4.6,-,N/A,,Unknown,60,2013-03-30 08:52:00
2:52 AM,51.1,46.0,83,30.00,-9999.0,NNE,3.5,-,N/A,,Unknown,30,2013-03-30 09:52:00
3:52 AM,51.1,45.0,80,29.99,-9999.0,NNE,5.8,-,N/A,,Unknown,20,2013-03-30 10:52:00
4:52 AM,50.0,44.1,80,29.98,-9999.0,NNE,3.5,-,N/A,,Unknown,30,2013-03-30 11:52:00
5:52 AM,48.0,42.1,80,29.99,-9999.0,NNE,3.5,-,N/A,,Unknown,30,2013-03-30 12:52:00
6:52 AM,44.1,37.9,79,30.01,-9999.0,ENE,3.5,-,N/A,,Unknown,60,2013-03-30 13:52:00
7:52 AM,45.0,39.0,80,30.04,-9999.0,Calm,Calm,-,N/A,,Unknown,0,2013-03-30 14:52:00
8:52 AM,54.0,45.0,72,30.05,-9999.0,Calm,Calm,-,N/A,,Unknown,0,2013-03-30 15:52:00
9:52 AM,61.0,46.9,60,30.04,-9999.0,Calm,Calm,-,N/A,,Unknown,0,2013-03-30 16:52:00
10:52 AM,66.9,48.0,51,30.03,-9999.0,SW,8.1,-,N/A,,Unknown,220,2013-03-30 17:52:00
11:52 AM,71.1,36.0,28,30.02,-9999.0,West,15.0,-,N/A,,Unknown,260,2013-03-30 18:52:00
12:52 PM,71.1,45.0,39,30.01,-9999.0,SW,9.2,-,N/A,,Unknown,220,2013-03-30 19:52:00
1:52 PM,72.0,44.1,37,29.99,-9999.0,WSW,10.4,-,N/A,,Unknown,240,2013-03-30 20:52:00
2:52 PM,73.0,45.0,37,29.99,-9999.0,West,11.5,24.2,N/A,,Unknown,260,2013-03-30 21:52:00
3:52 PM,72.0,46.9,41,29.97,-9999.0,WNW,13.8,17.3,N/A,,Unknown,300,2013-03-30 22:52:00
4:52 PM,71.1,46.0,41,29.97,-9999.0,West,12.7,-,N/A,,Unknown,270,2013-03-30 23:52:00
5:52 PM,69.1,46.9,45,29.97,-9999.0,WSW,6.9,-,N/A,,Unknown,240,2013-03-31 00:52:00
6:52 PM,61.0,46.9,60,30.00,-9999.0,SW,13.8,-,N/A,,Unknown,220,2013-03-31 01:52:00
7:52 PM,57.0,46.0,67,30.02,-9999.0,SW,10.4,-,N/A,,Unknown,220,2013-03-31 02:52:00
8:52 PM,54.0,46.0,75,30.03,-9999.0,Calm,Calm,-,N/A,,Unknown,0,2013-03-31 03:52:00
9:52 PM,46.9,42.1,83,30.04,-9999.0,Calm,Calm,-,N/A,,Unknown,0,2013-03-31 04:52:00
10:52 PM,45.0,41.0,86,30.05,-9999.0,Calm,Calm,-,N/A,,Unknown,0,2013-03-31 05:52:00
11:52 PM,43.0,39.9,89,30.04,-9999.0,ENE,3.5,-,N/A,,Unknown,60,2013-03-31 06:52:00